This demonstration page uses our WeatherBlox Daily Observations layout. Learn more.

Hourly Observations for December 7, 2018

Temp ( °F °C ) Dew Point ( °F °C ) Humidity (%) Winds ( mph kmh ) Pressure ( in mb ) Visibility ( mi km ) Precip ( " mm )
12:15 am 00:15 Mostly Cloudy 34 1 28 -2 81 81 W 5 7 30.27 1025 10 16.09344 0 0
12:35 am 00:35 Cloudy 36 2 28 -2 75 75 W 6 9 30.27 1025 10 16.09344 0 0
12:55 am 00:55 Cloudy 36 2 28 -2 75 75 W 6 9 30.27 1025 10 16.09344 0 0
1:15 am 01:15 Cloudy 36 2 28 -2 75 75 W 5 7 30.3 1026 10 16.09344 0 0
1:35 am 01:35 Cloudy 37 3 28 -2 70 70 W 6 9 30.3 1026 10 16.09344 0 0
1:55 am 01:55 Mostly Cloudy 37 3 28 -2 70 70 W 3 6 30.3 1026 10 16.09344 0 0
2:15 am 02:15 Mostly Cloudy 37 3 28 -2 70 70 W 6 9 30.3 1026 10 16.09344 0 0
2:35 am 02:35 Cloudy 36 2 28 -2 75 75 W 6 9 30.3 1026 10 16.09344 0 0
2:55 am 02:55 Cloudy 36 2 30 -1 81 81 W 6 9 30.3 1026 10 16.09344 0 0
3:15 am 03:15 Cloudy 37 3 30 -1 75 75 NW 7 11 30.33 1027 10 16.09344 0 0
3:35 am 03:35 Cloudy 37 3 30 -1 75 75 NW 7 11 30.33 1027 10 16.09344 0 0
3:55 am 03:55 Cloudy 37 3 32 0 81 81 NW 8 13 30.33 1027 10 16.09344 0 0
4:15 am 04:15 Cloudy 37 3 32 0 81 81 NW 9 15 30.33 1027 10 16.09344 0 0
4:35 am 04:35 Cloudy 39 4 32 0 75 75 NNW 8 13 30.33 1027 10 16.09344 0 0
4:55 am 04:55 Cloudy 39 4 32 0 75 75 NW 10 17 30.36 1028 10 16.09344 0 0
5:15 am 05:15 Cloudy 39 4 32 0 75 75 N 14 22 30.36 1028 10 16.09344 0 0
5:35 am 05:35 Cloudy 37 3 32 0 81 81 N 13 20 30.36 1028 10 16.09344 0 0
5:55 am 05:55 Partly Cloudy 37 3 30 -1 75 75 NNW 10 17 30.39 1029 10 16.09344 0 0
6:15 am 06:15 Clear 36 2 30 -1 81 81 NW 8 13 30.39 1029 10 16.09344 0 0
6:35 am 06:35 Clear 36 2 27 -3 70 70 NNW 12 19 30.39 1029 10 16.09344 0 0
6:55 am 06:55 Clear 36 2 25 -4 65 65 NNW 13 20 30.42 1030 10 16.09344 0 0
7:15 am 07:15 Clear 34 1 25 -4 70 70 undefined N/A 30.42 1030 10 16.09344 0 0
7:35 am 07:35 Sunny 34 1 23 -5 65 65 NNW 6 9 30.45 1031 10 16.09344 0 0
7:55 am 07:55 Sunny 34 1 23 -5 65 65 NNW 7 11 30.45 1031 10 16.09344 0 0
8:15 am 08:15 Sunny 34 1 23 -5 65 65 NNW 15 24 30.45 1031 10 16.09344 0 0
8:35 am 08:35 Sunny 34 1 23 -5 65 65 NNW 9 15 30.48 1032 10 16.09344 0 0
8:55 am 08:55 Sunny 36 2 23 -5 60 60 NNW 16 26 30.48 1032 10 16.09344 0 0
9:15 am 09:15 Sunny 36 2 23 -5 60 60 N 15 24 30.48 1032 10 16.09344 0 0
9:35 am 09:35 Sunny 36 2 23 -5 60 60 NNW 12 19 30.5 1033 10 16.09344 0 0
9:55 am 09:55 Sunny 36 2 23 -5 60 60 NNW 16 26 30.48 1032 10 16.09344 0 0
10:15 am 10:15 Sunny 37 3 23 -5 56 56 NNW 15 24 30.48 1032 10 16.09344 0 0
10:35 am 10:35 Sunny 37 3 23 -5 56 56 NNW 13 20 30.48 1032 10 16.09344 0 0
10:55 am 10:55 Sunny 37 3 23 -5 56 56 NNW 13 20 30.48 1032 10 16.09344 0 0
11:15 am 11:15 Sunny 37 3 23 -5 56 56 N 7 11 30.48 1032 10 16.09344 0 0
11:35 am 11:35 Sunny 39 4 23 -5 52 52 NNW 14 22 30.48 1032 10 16.09344 0 0
11:55 am 11:55 Sunny 39 4 21 -6 48 48 NNW 9 15 30.48 1032 10 16.09344 0 0
12:15 pm 12:15 Partly Cloudy 37 3 19 -7 48 48 NNW 12 19 30.48 1032 10 16.09344 0 0
12:35 pm 12:35 Partly Cloudy 41 5 21 -6 45 45 WNW 6 9 30.48 1032 10 16.09344 0 0
12:55 pm 12:55 Partly Cloudy 41 5 23 -5 49 49 WNW 7 11 30.48 1032 10 16.09344 0 0
1:15 pm 13:15 Sunny 41 5 21 -6 45 45 NW 9 15 30.48 1032 10 16.09344 0 0
1:35 pm 13:35 Sunny 41 5 21 -6 45 45 NW 13 20 30.48 1032 10 16.09344 0 0
1:55 pm 13:55 Sunny 41 5 21 -6 45 45 WNW 14 22 30.45 1031 10 16.09344 0 0
2:15 pm 14:15 Sunny 41 5 21 -6 45 45 NW 14 22 30.45 1031 10 16.09344 0 0
2:35 pm 14:35 Sunny 41 5 21 -6 45 45 NW 13 20 30.45 1031 10 16.09344 0 0
2:55 pm 14:55 Sunny 41 5 21 -6 45 45 NW 12 19 30.45 1031 10 16.09344 0 0
3:15 pm 15:15 Sunny 41 5 21 -6 45 45 NNW 9 15 30.45 1031 10 16.09344 0 0
3:35 pm 15:35 Sunny 39 4 21 -6 48 48 NNW 7 11 30.45 1031 10 16.09344 0 0
3:55 pm 15:55 Sunny 39 4 21 -6 48 48 NW 13 20 30.45 1031 10 16.09344 0 0
4:15 pm 16:15 Sunny 37 3 21 -6 52 52 NNW 13 20 30.45 1031 10 16.09344 0 0
4:35 pm 16:35 Sunny 37 3 21 -6 52 52 N 6 9 30.45 1031 10 16.09344 0 0
4:55 pm 16:55 Clear 36 2 21 -6 56 56 NNW 7 11 30.45 1031 10 16.09344 0 0
5:15 pm 17:15 Clear 36 2 21 -6 56 56 N 3 6 30.48 1032 10 16.09344 0 0
5:35 pm 17:35 Clear 36 2 21 -6 56 56 NE 3 6 30.48 1032 10 16.09344 0 0
5:55 pm 17:55 Clear 36 2 21 -6 56 56 N 5 7 30.48 1032 10 16.09344 0 0
6:15 pm 18:15 Clear 36 2 21 -6 56 56 Calm 30.48 1032 10 16.09344 0 0
6:35 pm 18:35 Clear 34 1 21 -6 60 60 Calm 30.48 1032 10 16.09344 0 0
6:55 pm 18:55 Clear 34 1 21 -6 60 60 ENE 3 6 30.48 1032 10 16.09344 0 0
7:15 pm 19:15 Clear 32 0 23 -5 69 69 NE 6 9 30.48 1032 10 16.09344 0 0
7:35 pm 19:35 Clear 34 1 21 -6 60 60 NNE 7 11 30.48 1032 10 16.09344 0 0
7:55 pm 19:55 Clear 34 1 21 -6 60 60 N 5 7 30.48 1032 10 16.09344 0 0
8:15 pm 20:15 Clear 32 0 21 -6 64 64 N 3 6 30.48 1032 10 16.09344 0 0
8:35 pm 20:35 Clear 32 0 21 -6 64 64 N 3 6 30.48 1032 10 16.09344 0 0
8:55 pm 20:55 Clear 32 0 21 -6 64 64 N 6 9 30.48 1032 10 16.09344 0 0
9:15 pm 21:15 Clear 32 0 21 -6 64 64 Calm 30.48 1032 10 16.09344 0 0
9:35 pm 21:35 Clear 30 -1 21 -6 69 69 Calm 30.5 1033 10 16.09344 0 0
9:55 pm 21:55 Clear 30 -1 23 -5 75 75 Calm 30.5 1033 10 16.09344 0 0
10:15 pm 22:15 Clear 28 -2 21 -6 74 74 Calm 30.5 1033 10 16.09344 0 0
10:35 pm 22:35 Clear 28 -2 23 -5 80 80 Calm 30.5 1033 10 16.09344 0 0
10:55 pm 22:55 Clear 28 -2 23 -5 80 80 Calm 30.5 1033 10 16.09344 0 0
11:15 pm 23:15 Clear 28 -2 23 -5 80 80 Calm 30.48 1032 10 16.09344 0 0
11:35 pm 23:35 Clear 28 -2 23 -5 80 80 Calm 30.48 1032 10 16.09344 0 0
11:55 pm 23:55 Clear 27 -3 21 -6 80 80 Calm 30.48 1032 10 16.09344 0 0

Powered by AerisWeather